Time,TemperatureF,DewpointF,PressureIn,WindDirection,WindDirectionDegrees,WindSpeedMPH,WindSpeedGustMPH,Humidity,HourlyPrecipIn,Conditions,Clouds,dailyrainin,SoftwareType,DateUTC
2013-06-18 00:02:00,84.0,48.0,29.72,SSW,203,0.0,0.0,29,0.00,,,0.00,,2013-06-18 07:02:00,
2013-06-18 00:11:00,83.0,47.0,29.72,SSW,203,0.0,0.0,29,0.00,,,0.00,,2013-06-18 07:11:00,
2013-06-18 00:22:00,82.0,48.0,29.72,SSW,203,0.0,0.0,31,0.00,,,0.00,,2013-06-18 07:22:00,
2013-06-18 00:32:00,82.0,48.0,29.72,SSW,203,0.0,0.0,31,0.00,,,0.00,,2013-06-18 07:32:00,
2013-06-18 00:42:00,82.0,49.0,29.72,SSW,203,0.0,0.0,32,0.00,,,0.00,,2013-06-18 07:42:00,
2013-06-18 00:52:00,82.0,49.0,29.72,SSW,203,0.0,0.0,32,0.00,,,0.00,,2013-06-18 07:52:00,
2013-06-18 01:01:00,81.0,47.0,29.72,SSW,203,0.0,1.0,31,0.00,,,0.00,,2013-06-18 08:01:00,
2013-06-18 01:11:00,81.0,49.0,29.72,SSW,203,0.0,0.0,33,0.00,,,0.00,,2013-06-18 08:11:00,
2013-06-18 01:22:00,80.0,48.0,29.72,SSW,203,0.0,0.0,33,0.00,,,0.00,,2013-06-18 08:22:00,
2013-06-18 01:32:00,80.0,48.0,29.72,SSW,203,0.0,0.0,33,0.00,,,0.00,,2013-06-18 08:32:00,
2013-06-18 01:43:00,80.0,48.0,29.72,SSW,203,0.0,0.0,33,0.00,,,0.00,,2013-06-18 08:43:00,
2013-06-18 02:11:00,79.0,49.0,29.72,SSW,203,0.0,0.0,35,0.00,,,0.00,,2013-06-18 09:11:00,
2013-06-18 02:21:00,78.0,48.0,29.72,SSW,203,0.0,0.0,35,0.00,,,0.00,,2013-06-18 09:21:00,
2013-06-18 02:33:00,78.0,48.0,29.72,SSW,203,1.0,2.0,35,0.00,,,0.00,,2013-06-18 09:33:00,
2013-06-18 02:42:00,78.0,48.0,29.72,SSW,203,0.0,1.0,35,0.00,,,0.00,,2013-06-18 09:42:00,
2013-06-18 02:53:00,78.0,48.0,29.72,SSW,203,1.0,2.0,35,0.00,,,0.00,,2013-06-18 09:53:00,
2013-06-18 03:01:00,78.0,48.0,29.71,SSW,203,1.0,1.0,35,0.00,,,0.00,,2013-06-18 10:01:00,
2013-06-18 03:11:00,78.0,47.0,29.71,SSW,203,1.0,2.0,34,0.00,,,0.00,,2013-06-18 10:11:00,
2013-06-18 03:22:00,78.0,47.0,29.72,SSW,203,0.0,1.0,33,0.00,,,0.00,,2013-06-18 10:22:00,
2013-06-18 03:33:00,78.0,47.0,29.72,SSW,203,1.0,2.0,33,0.00,,,0.00,,2013-06-18 10:33:00,
2013-06-18 03:42:00,78.0,47.0,29.71,SSW,203,1.0,2.0,33,0.00,,,0.00,,2013-06-18 10:42:00,
2013-06-18 03:52:00,78.0,47.0,29.71,SSW,203,0.0,1.0,33,0.00,,,0.00,,2013-06-18 10:52:00,
2013-06-18 04:02:00,77.0,46.0,29.71,SSW,203,1.0,2.0,33,0.00,,,0.00,,2013-06-18 11:02:00,
2013-06-18 04:11:00,77.0,46.0,29.71,SSW,203,1.0,2.0,33,0.00,,,0.00,,2013-06-18 11:11:00,
2013-06-18 04:22:00,77.0,46.0,29.71,SSW,203,1.0,2.0,33,0.00,,,0.00,,2013-06-18 11:22:00,
2013-06-18 04:32:00,77.0,46.0,29.72,SSW,203,1.0,2.0,33,0.00,,,0.00,,2013-06-18 11:32:00,
2013-06-18 04:42:00,77.0,46.0,29.72,SSW,203,0.0,0.0,34,0.00,,,0.00,,2013-06-18 11:42:00,
2013-06-18 04:52:00,76.0,46.0,29.72,SSW,203,1.0,3.0,34,0.00,,,0.00,,2013-06-18 11:52:00,
2013-06-18 05:01:00,76.0,45.0,29.72,SSW,203,0.0,1.0,33,0.00,,,0.00,,2013-06-18 12:01:00,
2013-06-18 05:11:00,76.0,45.0,29.72,SSW,203,0.0,0.0,33,0.00,,,0.00,,2013-06-18 12:11:00,
2013-06-18 05:22:00,76.0,47.0,29.73,SSW,203,0.0,0.0,36,0.00,,,0.00,,2013-06-18 12:22:00,
2013-06-18 05:32:00,75.0,46.0,29.73,SSW,203,0.0,0.0,36,0.00,,,0.00,,2013-06-18 12:32:00,
2013-06-18 05:42:00,74.0,47.0,29.73,SW,225,0.0,0.0,39,0.00,,,0.00,,2013-06-18 12:42:00,
2013-06-18 05:52:00,74.0,48.0,29.74,WNW,293,0.0,0.0,40,0.00,,,0.00,,2013-06-18 12:52:00,
2013-06-18 06:01:00,74.0,49.0,29.74,WNW,293,0.0,0.0,41,0.00,,,0.00,,2013-06-18 13:01:00,
2013-06-18 06:11:00,74.0,49.0,29.75,WNW,293,0.0,0.0,41,0.00,,,0.00,,2013-06-18 13:11:00,
2013-06-18 06:22:00,74.0,49.0,29.75,WNW,293,0.0,0.0,41,0.00,,,0.00,,2013-06-18 13:22:00,
2013-06-18 06:33:00,74.0,49.0,29.75,WNW,293,0.0,0.0,42,0.00,,,0.00,,2013-06-18 13:33:00,
2013-06-18 07:02:00,73.0,50.0,29.76,WNW,293,1.0,2.0,45,0.00,,,0.00,,2013-06-18 14:02:00,
2013-06-18 07:11:00,75.0,51.0,29.76,WNW,293,0.0,0.0,43,0.00,,,0.00,,2013-06-18 14:11:00,
2013-06-18 07:22:00,76.0,51.0,29.76,WNW,293,1.0,2.0,42,0.00,,,0.00,,2013-06-18 14:22:00,
2013-06-18 07:32:00,76.0,51.0,29.75,WNW,293,0.0,2.0,42,0.00,,,0.00,,2013-06-18 14:32:00,
2013-06-18 07:42:00,77.0,49.0,29.76,WNW,293,0.0,0.0,38,0.00,,,0.00,,2013-06-18 14:42:00,
2013-06-18 07:52:00,78.0,50.0,29.75,WNW,293,0.0,0.0,38,0.00,,,0.00,,2013-06-18 14:52:00,
2013-06-18 08:01:00,78.0,50.0,29.76,WNW,293,0.0,1.0,38,0.00,,,0.00,,2013-06-18 15:01:00,
2013-06-18 08:11:00,79.0,50.0,29.76,WNW,293,0.0,0.0,36,0.00,,,0.00,,2013-06-18 15:11:00,
2013-06-18 08:22:00,81.0,49.0,29.76,WNW,293,0.0,0.0,33,0.00,,,0.00,,2013-06-18 15:22:00,
2013-06-18 08:33:00,82.0,48.0,29.77,WNW,293,0.0,1.0,31,0.00,,,0.00,,2013-06-18 15:33:00,
2013-06-18 08:42:00,83.0,47.0,29.77,West,270,3.0,3.0,28,0.00,,,0.00,,2013-06-18 15:42:00,
2013-06-18 08:52:00,84.0,46.0,29.77,SSW,203,3.0,5.0,27,0.00,,,0.00,,2013-06-18 15:52:00,
2013-06-18 09:01:00,87.0,46.0,29.77,SSW,203,1.0,3.0,24,0.00,,,0.00,,2013-06-18 16:01:00,
2013-06-18 09:11:00,87.0,46.0,29.77,SSW,203,2.0,3.0,24,0.00,,,0.00,,2013-06-18 16:11:00,
2013-06-18 09:22:00,89.0,44.0,29.77,South,180,2.0,3.0,21,0.00,,,0.00,,2013-06-18 16:22:00,
2013-06-18 09:33:00,90.0,45.0,29.76,South,180,2.0,3.0,21,0.00,,,0.00,,2013-06-18 16:33:00,
2013-06-18 09:43:00,90.0,41.0,29.77,South,180,1.0,2.0,18,0.00,,,0.00,,2013-06-18 16:43:00,
2013-06-18 09:52:00,91.0,43.0,29.77,South,180,0.0,1.0,19,0.00,,,0.00,,2013-06-18 16:52:00,
2013-06-18 10:01:00,92.0,41.0,29.76,South,180,2.0,3.0,17,0.00,,,0.00,,2013-06-18 17:01:00,
2013-06-18 10:11:00,92.0,41.0,29.77,South,180,3.0,3.0,17,0.00,,,0.00,,2013-06-18 17:11:00,
2013-06-18 10:22:00,93.0,42.0,29.77,SSE,158,1.0,2.0,17,0.00,,,0.00,,2013-06-18 17:22:00,
2013-06-18 10:33:00,93.0,38.0,29.77,SSE,158,2.0,3.0,15,0.00,,,0.00,,2013-06-18 17:33:00,
2013-06-18 10:43:00,93.0,38.0,29.76,SSE,158,1.0,2.0,15,0.00,,,0.00,,2013-06-18 17:43:00,
2013-06-18 10:53:00,94.0,41.0,29.76,South,180,2.0,6.0,16,0.00,,,0.00,,2013-06-18 17:53:00,
2013-06-18 11:01:00,95.0,43.0,29.76,South,180,2.0,2.0,17,0.00,,,0.00,,2013-06-18 18:01:00,
2013-06-18 11:11:00,95.0,42.0,29.77,South,180,1.0,3.0,16,0.00,,,0.00,,2013-06-18 18:11:00,
2013-06-18 11:22:00,96.0,44.0,29.76,South,180,1.0,3.0,17,0.00,,,0.00,,2013-06-18 18:22:00,
2013-06-18 12:22:00,99.0,43.0,29.75,SW,225,3.0,5.0,15,0.00,,,0.00,,2013-06-18 19:22:00,
2013-06-18 13:01:00,100.0,40.0,29.73,South,180,5.0,7.0,13,0.00,,,0.00,,2013-06-18 20:01:00,
2013-06-18 13:11:00,101.0,41.0,29.73,SSE,158,5.0,7.0,13,0.00,,,0.00,,2013-06-18 20:11:00,
2013-06-18 13:22:00,100.0,42.0,29.73,SSE,158,3.0,7.0,14,0.00,,,0.00,,2013-06-18 20:22:00,
2013-06-18 13:52:00,102.0,44.0,29.72,SW,225,2.0,6.0,14,0.00,,,0.00,,2013-06-18 20:52:00,
2013-06-18 14:01:00,102.0,44.0,29.72,SW,225,5.0,8.0,14,0.00,,,0.00,,2013-06-18 21:01:00,
2013-06-18 14:11:00,102.0,42.0,29.71,South,180,5.0,8.0,13,0.00,,,0.00,,2013-06-18 21:11:00,
2013-06-18 14:22:00,103.0,45.0,29.70,South,180,3.0,5.0,14,0.00,,,0.00,,2013-06-18 21:22:00,
2013-06-18 15:22:00,104.0,45.0,29.68,SSW,203,2.0,3.0,14,0.00,,,0.00,,2013-06-18 22:22:00,
2013-06-18 16:11:00,104.0,45.0,29.65,South,180,3.0,5.0,14,0.00,,,0.00,,2013-06-18 23:11:00,
2013-06-18 16:23:00,105.0,44.0,29.65,West,270,2.0,3.0,13,0.00,,,0.00,,2013-06-18 23:23:00,
2013-06-18 16:34:00,105.0,44.0,29.65,South,180,5.0,6.0,13,0.00,,,0.00,,2013-06-18 23:34:00,
2013-06-18 16:43:00,105.0,42.0,29.64,SSW,203,1.0,5.0,12,0.00,,,0.00,,2013-06-18 23:43:00,
2013-06-18 17:01:00,105.0,44.0,29.63,SSW,203,2.0,3.0,13,0.00,,,0.00,,2013-06-19 00:01:00,
2013-06-18 17:11:00,105.0,44.0,29.62,West,270,6.0,9.0,13,0.00,,,0.00,,2013-06-19 00:11:00,
2013-06-18 17:22:00,105.0,44.0,29.62,WSW,248,3.0,5.0,13,0.00,,,0.00,,2013-06-19 00:22:00,
2013-06-18 17:33:00,105.0,44.0,29.61,WSW,248,3.0,5.0,13,0.00,,,0.00,,2013-06-19 00:33:00,
2013-06-18 17:43:00,104.0,43.0,29.62,SW,225,5.0,8.0,13,0.00,,,0.00,,2013-06-19 00:43:00,
2013-06-18 18:01:00,104.0,43.0,29.61,West,270,2.0,3.0,13,0.00,,,0.00,,2013-06-19 01:01:00,
2013-06-18 18:11:00,104.0,43.0,29.61,SW,225,3.0,5.0,13,0.00,,,0.00,,2013-06-19 01:11:00,
2013-06-18 18:32:00,103.0,43.0,29.61,West,270,2.0,3.0,13,0.00,,,0.00,,2013-06-19 01:32:00,
2013-06-18 18:42:00,103.0,45.0,29.61,West,270,1.0,2.0,14,0.00,,,0.00,,2013-06-19 01:42:00,
2013-06-18 20:42:00,96.0,44.0,29.61,South,180,2.0,3.0,17,0.00,,,0.00,,2013-06-19 03:42:00,
2013-06-18 20:52:00,94.0,45.0,29.62,South,180,2.0,3.0,19,0.00,,,0.00,,2013-06-19 03:52:00,
2013-06-18 21:01:00,93.0,46.0,29.62,SSW,203,1.0,3.0,20,0.00,,,0.00,,2013-06-19 04:01:00,
2013-06-18 21:11:00,92.0,46.0,29.63,SSW,203,2.0,3.0,21,0.00,,,0.00,,2013-06-19 04:11:00,
2013-06-18 21:22:00,92.0,46.0,29.63,SSW,203,2.0,3.0,21,0.00,,,0.00,,2013-06-19 04:22:00,
2013-06-18 21:32:00,92.0,48.0,29.64,West,270,2.0,5.0,22,0.00,,,0.00,,2013-06-19 04:32:00,
2013-06-18 21:42:00,90.0,48.0,29.64,WSW,248,1.0,2.0,24,0.00,,,0.00,,2013-06-19 04:42:00,
2013-06-18 21:52:00,90.0,48.0,29.65,WSW,248,1.0,3.0,24,0.00,,,0.00,,2013-06-19 04:52:00,
2013-06-18 22:01:00,90.0,48.0,29.64,WSW,248,2.0,3.0,24,0.00,,,0.00,,2013-06-19 05:01:00,
2013-06-18 22:32:00,88.0,47.0,29.65,SW,225,1.0,2.0,24,0.00,,,0.00,,2013-06-19 05:32:00,
2013-06-18 22:42:00,87.0,44.0,29.65,West,270,1.0,2.0,22,0.00,,,0.00,,2013-06-19 05:42:00,
2013-06-18 22:52:00,87.0,44.0,29.65,West,270,0.0,0.0,22,0.00,,,0.00,,2013-06-19 05:52:00,
2013-06-18 23:01:00,87.0,42.0,29.65,West,270,1.0,2.0,21,0.00,,,0.00,,2013-06-19 06:01:00,
2013-06-18 23:11:00,87.0,44.0,29.65,West,270,0.0,1.0,22,0.00,,,0.00,,2013-06-19 06:11:00,
2013-06-18 23:21:00,86.0,43.0,29.65,West,270,1.0,1.0,22,0.00,,,0.00,,2013-06-19 06:21:00,
2013-06-18 23:33:00,86.0,41.0,29.65,West,270,1.0,2.0,21,0.00,,,0.00,,2013-06-19 06:33:00,
2013-06-18 23:42:00,85.0,41.0,29.65,West,270,0.0,0.0,21,0.00,,,0.00,,2013-06-19 06:42:00,
2013-06-18 23:52:00,85.0,41.0,29.64,West,270,1.0,2.0,21,0.00,,,0.00,,2013-06-19 06:52:00,